Content
SEND FEEDBACK

Daily
Averages
Monthly
Summary
United States of America

AGANA, GUAM


Home > North America > United States > Guam
Elevation: 74 meters     Latitude: 13 29N     Longitude: 144 48E

WEATHER
 
SELECT A DAY
Number of Records: 215,487;   Date Range: 1/1/95 - 12/16/14
 
SHARE

PRINT THIS DATA

[ ← Previous Day ]
WEATHER ALMANAC - 3 FEBRUARY, 2013
[ Next Day → ]
[ °F ]   °C
Weather ElementAverageHighLow
Temperature26.7 °C29.4 °C (12:54 pm)24.4 °C (3:54 am)
Dewpoint21.3 °C22.2 °C (9:54 am)20.6 °C (2:54 am)
Humidity72.3 %82 % (3:54 am)61 % (12:54 pm)
Barometer1014.9 hPa1015.9 hPa (8:54 am)1013.2 hPa (2:54 pm)
Wind Speed23.8 km/h35.2 km/h (11:17 am)
Wind Gust48.1 km/h (11:54 am)
Weather ElementAverage
Visibility16.1 km
Wind DirectionENE (66.8 °)

Weather ElementTotal
Precipitation---
Cooling Degree Days8.6 (Base 18.3)
Growing Degree Days16.9 (Base 10)
Averaged from 25 records on 3 February, 2013
WEATHER CONDITIONS BREAKOUT
WIND DIRECTION BREAKOUT
WEATHER BY HOUR - 3 FEBRUARY, 2013
[ °F ]   °C
Local TimeTemperatureDewpointHumidityBarometerVisibilityWind DirectionWind SpeedGust SpeedPrecipitationEventsConditions
1:54 AM25 °C21.1 °C79 %1014.9 hPa16.1 kmNE (50°)20.4 km/hMostly Cloudy
2:54 AM25 °C20.6 °C76 %1014.2 hPa16.1 kmENE (70°)24.1 km/hPartly Cloudy
3:54 AM24.4 °C21.1 °C82 %1013.9 hPa16.1 kmENE (60°)20.4 km/hScattered Clouds
4:54 AM25 °C20.6 °C76 %1014.2 hPa16.1 kmENE (60°)14.8 km/hOvercast
5:54 AM25 °C20.6 °C76 %1014.6 hPa16.1 kmNE (50°)16.7 km/hOvercast
6:54 AM25 °C21.1 °C79 %1015.2 hPa16.1 kmENE (60°)14.8 km/hOvercast
7:54 AM25.6 °C21.1 °C76 %1015.6 hPa16.1 kmENE (60°)14.8 km/hMostly Cloudy
8:54 AM26.1 °C21.7 °C77 %1015.9 hPa16.1 kmENE (70°)27.8 km/hMostly Cloudy
9:54 AM26.7 °C22.2 °C76 %1015.9 hPa16.1 kmENE (60°)20.4 km/h0 mmMostly Cloudy
10:54 AM28.3 °C21.1 °C65 %1015.6 hPa16.1 kmEast (80°)31.5 km/hMostly Cloudy
11:17 AM29 °C21 °C62 %1015.9 hPa16.1 kmEast (80°)35.2 km/hMostly Cloudy
11:30 AM29 °C21 °C62 %1015.9 hPa16.1 kmENE (70°)35.2 km/h46.3 km/hMostly Cloudy
11:54 AM28.3 °C20.6 °C63 %1014.6 hPa16.1 kmENE (70°)35.2 km/h48.1 km/hMostly Cloudy
12:54 PM29.4 °C21.1 °C61 %1014.2 hPa16.1 kmEast (80°)27.8 km/h42.6 km/hMostly Cloudy
1:54 PM28.3 °C21.1 °C65 %1013.9 hPa16.1 kmENE (70°)33.3 km/h44.4 km/hMostly Cloudy
2:54 PM28.9 °C21.1 °C63 %1013.2 hPa16.1 kmEast (80°)31.5 km/h44.4 km/hMostly Cloudy
3:54 PM28.3 °C21.7 °C67 %1013.5 hPa16.1 kmEast (80°)25.9 km/h40.7 km/hScattered Clouds
4:54 PM27.8 °C21.7 °C69 %1013.9 hPa16.1 kmEast (80°)24.1 km/hPartly Cloudy
5:54 PM27.2 °C21.7 °C72 %1014.2 hPa16.1 kmENE (70°)25.9 km/h38.9 km/hPartly Cloudy
6:54 PM26.1 °C21.7 °C77 %1014.6 hPa16.1 kmENE (60°)18.5 km/hScattered Clouds
7:54 PM26.1 °C21.7 °C77 %1015.2 hPa16.1 kmENE (60°)20.4 km/hClear
8:54 PM26.1 °C21.7 °C77 %1015.6 hPa16.1 kmENE (60°)16.7 km/hPartly Cloudy
9:54 PM26.1 °C21.7 °C77 %1015.9 hPa16.1 kmENE (60°)18.5 km/hPartly Cloudy
10:54 PM26.1 °C21.1 °C74 %1015.9 hPa16.1 kmENE (70°)22.2 km/h0 mmScattered Clouds
11:54 PM25.6 °C21.7 °C79 %1015.6 hPa16.1 kmENE (60°)16.7 km/hScattered Clouds
Hourly data recorded from PGUM, located 0 kilometers away from Agana, Guam







STORIES FROM OUR PARTNERS